DAL52 KJFK-LSZH

Flight info

Callsign DAL52
Flight time N/A
Altitude 31000
Route SHIPP Y487 ISLES DCT JENYY DCT JOBOC/M081F330 NATX NASBA/M080F350 DCT RATKA/N0461F350 DCT LARLA DCT OTOFE UN491 UPALO UN585 EKRAS UN491 PIGOP DCT TABOV DCT RESMI DCT TEPRI DCT POGZI DCT GELTA DCT MANAG DCT PEVIT DCT BLM
Aircraft B764/H-SDE3FGHIM3RWXY/LB1

Departure

Time 2026-05-05 05:38
Airport John F. Kennedy International Airport (KJFK)

Arrival

Time N/A
Airport Zürich Airport (LSZH)
Time Latitude Longitude Altitude Speed Heading
2026-05-05 05:38 40.67253 -73.67690 12415 ft 314 kts 145°
2026-05-05 05:38 40.65643 -73.65677 13310 ft 324 kts 145°
2026-05-05 05:39 40.63993 -73.63612 14195 ft 332 kts 145°
2026-05-05 05:39 40.62318 -73.61515 15073 ft 339 kts 145°
2026-05-05 05:39 40.60579 -73.59337 15964 ft 344 kts 145°
2026-05-05 05:39 40.58850 -73.57185 16831 ft 348 kts 142°
2026-05-05 05:40 40.57095 -73.54987 17705 ft 350 kts 142°
2026-05-05 05:40 40.55327 -73.52767 18580 ft 352 kts 142°
2026-05-05 05:40 40.53553 -73.50539 19453 ft 351 kts 142°
2026-05-05 05:40 40.51793 -73.48326 20372 ft 347 kts 142°
2026-05-05 05:41 40.50028 -73.46111 20929 ft 355 kts 142°
2026-05-05 05:41 40.48215 -73.43844 21395 ft 364 kts 142°
2026-05-05 05:41 40.46354 -73.41521 21856 ft 372 kts 142°
2026-05-05 05:41 40.44457 -73.39153 22315 ft 380 kts 142°
2026-05-05 05:42 40.42527 -73.36742 22773 ft 387 kts 142°
2026-05-05 05:42 40.40556 -73.34278 23230 ft 394 kts 143°
2026-05-05 05:42 40.38557 -73.31778 23687 ft 400 kts 143°
2026-05-05 05:42 40.36529 -73.29242 24142 ft 406 kts 141°
2026-05-05 05:43 40.34528 -73.26745 24582 ft 411 kts 140°
2026-05-05 05:43 40.32487 -73.23927 25041 ft 420 kts 135°
2026-05-05 05:43 40.30750 -73.20862 25492 ft 427 kts 130°
2026-05-05 05:43 40.29092 -73.17588 25947 ft 432 kts 128°
2026-05-05 05:44 40.27481 -73.14231 26399 ft 436 kts 127°
2026-05-05 05:44 40.26411 -73.11941 26702 ft 439 kts 127°
2026-05-05 05:44 40.24312 -73.07395 27292 ft 441 kts 129°
2026-05-05 05:44 40.22666 -73.04003 27741 ft 442 kts 130°
2026-05-05 05:45 40.20991 -73.00631 28190 ft 443 kts 130°
2026-05-05 05:45 40.19297 -72.97259 28633 ft 443 kts 130°
2026-05-05 05:45 40.18174 -72.95032 28929 ft 443 kts 130°
2026-05-05 05:45 40.16475 -72.91666 29376 ft 443 kts 130°
2026-05-05 05:46 40.14768 -72.88292 29733 ft 446 kts 131°
2026-05-05 05:46 40.13043 -72.84892 29873 ft 454 kts 131°
2026-05-05 05:46 40.09504 -72.77831 29929 ft 476 kts 129°
2026-05-05 05:47 40.07754 -72.74097 29932 ft 487 kts 128°
2026-05-05 05:47 40.05996 -72.70255 29927 ft 498 kts 127°
2026-05-05 05:47 40.04211 -72.66308 29927 ft 509 kts 127°
2026-05-05 05:47 40.02400 -72.62281 29925 ft 519 kts 126°
2026-05-05 05:48 39.98696 -72.53991 29926 ft 539 kts 126°
2026-05-05 05:48 39.94904 -72.45411 29919 ft 549 kts 125°
2026-05-05 05:49 39.91099 -72.36763 29913 ft 552 kts 126°
2026-05-05 05:49 39.87293 -72.28129 29912 ft 556 kts 125°
2026-05-05 05:50 39.83420 -72.19352 29909 ft 555 kts 126°
2026-05-05 05:50 39.79557 -72.10625 29909 ft 557 kts 126°
2026-05-05 05:51 39.75680 -72.01880 29908 ft 558 kts 126°
2026-05-05 05:51 39.71750 -71.93197 29910 ft 557 kts 127°
2026-05-05 05:52 39.67754 -71.84586 29907 ft 557 kts 127°
2026-05-05 05:52 39.63735 -71.75984 29908 ft 557 kts 127°
2026-05-05 05:53 39.59706 -71.67393 29909 ft 558 kts 127°
2026-05-05 05:53 39.55699 -71.58871 29908 ft 558 kts 127°
2026-05-05 05:54 39.51623 -71.50226 29910 ft 559 kts 127°
2026-05-05 05:54 39.47580 -71.41673 29919 ft 562 kts 128°
2026-05-05 05:55 39.43928 -71.32738 29897 ft 567 kts 111°
2026-05-05 05:55 39.43150 -71.27712 29912 ft 574 kts 96°
2026-05-05 05:55 39.43217 -71.22538 29933 ft 580 kts 84°
2026-05-05 05:56 39.44564 -71.12169 29929 ft 585 kts 77°
2026-05-05 05:56 39.46304 -71.01914 29917 ft 581 kts 76°
2026-05-05 05:57 39.48103 -70.91692 29927 ft 585 kts 76°
2026-05-05 05:57 39.49909 -70.81437 29923 ft 583 kts 76°
2026-05-05 05:58 39.51707 -70.71185 29929 ft 586 kts 76°
2026-05-05 05:58 39.53504 -70.60886 29932 ft 585 kts 76°
2026-05-05 05:59 39.55287 -70.50601 29936 ft 586 kts 76°
2026-05-05 05:59 39.57067 -70.40279 29943 ft 587 kts 76°
2026-05-05 06:00 39.58241 -70.33433 29943 ft 587 kts 76°